Time,TemperatureF,DewpointF,PressureIn,WindDirection,WindDirectionDegrees,WindSpeedMPH,WindSpeedGustMPH,Humidity,HourlyPrecipIn,Conditions,Clouds,dailyrainin,SoftwareType,DateUTC
2013-01-02 00:00:00,49.8,49.0,29.95,West,277,0.0,0.0,97,0.03,,---,0.00,VWS V14.01,2013-01-02 05:00:00,
2013-01-02 00:03:00,49.8,49.0,29.95,West,277,0.0,0.0,97,0.03,,---,0.00,VWS V14.01,2013-01-02 05:03:00,
2013-01-02 00:08:00,49.8,49.0,29.95,West,277,0.0,1.0,97,0.03,,---,0.00,VWS V14.01,2013-01-02 05:08:00,
2013-01-02 00:13:00,49.8,49.0,29.95,West,277,0.0,1.0,97,0.03,,---,0.00,VWS V14.01,2013-01-02 05:13:00,
2013-01-02 00:19:00,49.8,49.0,29.94,West,276,0.0,1.0,97,0.03,,---,0.00,VWS V14.01,2013-01-02 05:19:00,
2013-01-02 00:24:00,49.7,48.9,29.94,West,277,0.0,1.0,97,0.03,,---,0.00,VWS V14.01,2013-01-02 05:24:00,
2013-01-02 00:29:00,49.7,48.9,29.94,West,277,0.0,1.0,97,0.03,,---,0.00,VWS V14.01,2013-01-02 05:29:00,
2013-01-02 00:30:00,49.7,48.9,29.94,West,277,0.0,1.0,97,0.04,,---,0.01,VWS V14.01,2013-01-02 05:30:00,
2013-01-02 00:34:00,49.7,48.9,29.93,West,277,0.0,0.0,97,0.03,,---,0.01,VWS V14.01,2013-01-02 05:34:00,
2013-01-02 00:39:00,49.6,48.8,29.92,West,277,0.0,0.0,97,0.03,,---,0.01,VWS V14.01,2013-01-02 05:39:00,
2013-01-02 00:44:00,49.6,48.8,29.94,West,277,0.0,0.0,97,0.03,,---,0.01,VWS V14.01,2013-01-02 05:44:00,
2013-01-02 00:49:00,49.6,48.8,29.94,West,277,0.0,0.0,97,0.04,,---,0.02,VWS V14.01,2013-01-02 05:49:00,
2013-01-02 00:54:00,49.5,48.7,29.93,West,276,0.0,0.0,97,0.04,,---,0.02,VWS V14.01,2013-01-02 05:54:00,
2013-01-02 00:59:00,49.5,48.7,29.92,North,354,1.0,1.0,97,0.04,,---,0.02,VWS V14.01,2013-01-02 05:59:00,
2013-01-02 01:00:00,49.5,48.7,29.92,North,360,1.0,1.0,97,0.04,,---,0.02,VWS V14.01,2013-01-02 06:00:00,
2013-01-02 01:04:00,49.5,48.7,29.93,North,360,0.0,1.0,97,0.03,,---,0.03,VWS V14.01,2013-01-02 06:04:00,
2013-01-02 01:09:00,49.4,48.6,29.93,North,360,0.0,1.0,97,0.03,,---,0.03,VWS V14.01,2013-01-02 06:09:00,
2013-01-02 01:15:00,49.4,48.6,29.92,North,360,1.0,1.0,97,0.04,,---,0.04,VWS V14.01,2013-01-02 06:15:00,
2013-01-02 01:20:00,49.4,48.6,29.92,NE,37,0.0,2.0,97,0.05,,---,0.05,VWS V14.01,2013-01-02 06:20:00,
2013-01-02 01:25:00,49.4,48.6,29.92,NE,37,0.0,2.0,97,0.05,,---,0.05,VWS V14.01,2013-01-02 06:25:00,
2013-01-02 01:30:00,49.3,48.5,29.91,NE,37,0.0,0.0,97,0.05,,---,0.06,VWS V14.01,2013-01-02 06:30:00,
2013-01-02 01:35:00,49.2,48.4,29.91,NE,39,0.0,2.0,97,0.05,,---,0.06,VWS V14.01,2013-01-02 06:35:00,
2013-01-02 01:40:00,49.2,48.4,29.91,NE,46,2.0,2.0,97,0.05,,---,0.06,VWS V14.01,2013-01-02 06:40:00,
2013-01-02 01:45:00,49.2,48.4,29.91,NNE,30,1.0,2.0,97,0.06,,---,0.07,VWS V14.01,2013-01-02 06:45:00,
2013-01-02 01:50:00,49.1,48.3,29.93,NNE,29,0.0,2.0,97,0.06,,---,0.07,VWS V14.01,2013-01-02 06:50:00,
2013-01-02 01:55:00,49.1,48.3,29.93,NNE,29,0.0,2.0,97,0.06,,---,0.07,VWS V14.01,2013-01-02 06:55:00,
2013-01-02 02:00:00,49.1,48.3,29.93,North,359,1.0,2.0,97,0.05,,---,0.07,VWS V14.01,2013-01-02 07:00:00,
2013-01-02 02:05:00,49.0,48.2,29.93,NE,37,2.0,4.0,97,0.06,,---,0.08,VWS V14.01,2013-01-02 07:05:00,
2013-01-02 02:11:00,48.9,48.1,29.92,NNE,25,0.0,4.0,97,0.07,,---,0.09,VWS V14.01,2013-01-02 07:11:00,
2013-01-02 02:16:00,48.8,48.0,29.93,ENE,61,2.0,4.0,97,0.08,,---,0.10,VWS V14.01,2013-01-02 07:16:00,
2013-01-02 02:21:00,48.8,48.0,29.93,NE,44,1.0,4.0,97,0.08,,---,0.10,VWS V14.01,2013-01-02 07:21:00,
2013-01-02 02:26:00,48.7,47.9,29.93,NE,47,1.0,4.0,97,0.08,,---,0.10,VWS V14.01,2013-01-02 07:26:00,
2013-01-02 02:30:00,48.5,47.7,29.93,NE,47,4.0,5.0,97,0.09,,---,0.11,VWS V14.01,2013-01-02 07:30:00,
2013-01-02 02:31:00,48.5,47.7,29.93,NNW,332,0.0,5.0,97,0.05,,---,0.11,VWS V14.01,2013-01-02 07:31:00,
2013-01-02 02:36:00,48.4,47.6,29.94,NE,50,2.0,5.0,97,0.06,,---,0.12,VWS V14.01,2013-01-02 07:36:00,
2013-01-02 02:41:00,48.4,47.6,29.94,NE,43,3.0,5.0,97,0.06,,---,0.12,VWS V14.01,2013-01-02 07:41:00,
2013-01-02 02:46:00,48.2,47.4,29.93,NE,37,1.0,5.0,97,0.08,,---,0.14,VWS V14.01,2013-01-02 07:46:00,
2013-01-02 02:51:00,48.1,47.3,29.94,NE,43,0.0,5.0,97,0.09,,---,0.15,VWS V14.01,2013-01-02 07:51:00,
2013-01-02 02:56:00,48.1,47.3,29.96,NNW,346,0.0,5.0,97,0.09,,---,0.15,VWS V14.01,2013-01-02 07:56:00,
2013-01-02 03:00:00,48.0,47.2,29.96,NE,41,2.0,5.0,97,0.10,,---,0.16,VWS V14.01,2013-01-02 08:00:00,
2013-01-02 03:01:00,48.0,47.2,29.95,NE,43,2.0,3.0,97,0.09,,---,0.16,VWS V14.01,2013-01-02 08:01:00,
2013-01-02 03:06:00,47.8,47.0,29.92,NE,46,1.0,4.0,97,0.10,,---,0.17,VWS V14.01,2013-01-02 08:06:00,
2013-01-02 03:12:00,47.7,46.9,29.94,NE,40,1.0,4.0,97,0.11,,---,0.18,VWS V14.01,2013-01-02 08:12:00,
2013-01-02 03:17:00,47.6,46.8,29.93,NE,46,2.0,4.0,97,0.11,,---,0.18,VWS V14.01,2013-01-02 08:17:00,
2013-01-02 03:22:00,47.5,46.7,29.95,NE,50,6.0,7.0,97,0.12,,---,0.19,VWS V14.01,2013-01-02 08:22:00,
2013-01-02 03:27:00,47.2,46.1,29.94,East,84,1.0,7.0,96,0.12,,---,0.19,VWS V14.01,2013-01-02 08:27:00,
2013-01-02 03:30:00,47.1,46.0,29.94,NNE,23,1.0,7.0,96,0.13,,---,0.20,VWS V14.01,2013-01-02 08:30:00,
2013-01-02 03:32:00,47.0,46.2,29.95,North,350,0.0,3.0,97,0.09,,---,0.20,VWS V14.01,2013-01-02 08:32:00,
2013-01-02 03:37:00,46.8,46.0,29.93,NE,41,1.0,3.0,97,0.09,,---,0.20,VWS V14.01,2013-01-02 08:37:00,
2013-01-02 03:42:00,46.8,46.0,29.93,East,83,3.0,3.0,97,0.10,,---,0.21,VWS V14.01,2013-01-02 08:42:00,
2013-01-02 03:47:00,46.6,45.8,29.94,NNE,23,1.0,4.0,97,0.10,,---,0.21,VWS V14.01,2013-01-02 08:47:00,
2013-01-02 03:52:00,46.6,45.8,29.96,NW,323,1.0,4.0,97,0.11,,---,0.22,VWS V14.01,2013-01-02 08:52:00,
2013-01-02 03:57:00,46.5,45.7,29.95,NE,37,2.0,4.0,97,0.12,,---,0.23,VWS V14.01,2013-01-02 08:57:00,
2013-01-02 04:00:00,46.5,45.7,29.96,NE,37,1.0,5.0,97,0.12,,---,0.23,VWS V14.01,2013-01-02 09:00:00,
2013-01-02 04:03:00,46.5,45.7,29.95,NE,36,0.0,2.0,97,0.08,,---,0.24,VWS V14.01,2013-01-02 09:03:00,
2013-01-02 04:08:00,46.3,45.5,29.94,NE,46,2.0,6.0,97,0.08,,---,0.24,VWS V14.01,2013-01-02 09:08:00,
2013-01-02 04:13:00,46.1,45.0,29.93,North,9,4.0,6.0,96,0.09,,---,0.25,VWS V14.01,2013-01-02 09:13:00,
2013-01-02 04:18:00,46.0,45.2,29.95,NE,39,0.0,6.0,97,0.09,,---,0.25,VWS V14.01,2013-01-02 09:18:00,
2013-01-02 04:23:00,45.9,44.8,29.96,NNE,20,1.0,6.0,96,0.09,,---,0.25,VWS V14.01,2013-01-02 09:23:00,
2013-01-02 04:28:00,45.7,44.6,29.95,ESE,118,0.0,6.0,96,0.09,,---,0.25,VWS V14.01,2013-01-02 09:28:00,
2013-01-02 04:30:00,45.7,44.6,29.94,ENE,65,2.0,6.0,96,0.09,,---,0.25,VWS V14.01,2013-01-02 09:30:00,
2013-01-02 04:33:00,45.6,44.5,29.93,ENE,58,2.0,5.0,96,0.05,,---,0.25,VWS V14.01,2013-01-02 09:33:00,
2013-01-02 04:38:00,45.5,44.4,29.95,NNE,25,2.0,6.0,96,0.05,,---,0.25,VWS V14.01,2013-01-02 09:38:00,
2013-01-02 04:43:00,45.4,44.3,29.94,NE,44,1.0,6.0,96,0.05,,---,0.25,VWS V14.01,2013-01-02 09:43:00,
2013-01-02 04:48:00,45.4,44.3,29.95,NE,43,1.0,6.0,96,0.05,,---,0.25,VWS V14.01,2013-01-02 09:48:00,
2013-01-02 04:53:00,45.3,44.2,29.94,North,360,2.0,6.0,96,0.05,,---,0.25,VWS V14.01,2013-01-02 09:53:00,
2013-01-02 04:58:00,45.2,44.1,29.95,NNE,12,1.0,6.0,96,0.05,,---,0.25,VWS V14.01,2013-01-02 09:58:00,
2013-01-02 05:00:00,45.2,44.1,29.96,NE,51,4.0,6.0,96,0.05,,---,0.25,VWS V14.01,2013-01-02 10:00:00,
2013-01-02 05:03:00,45.1,44.0,29.96,NE,46,4.0,4.0,96,0.02,,---,0.25,VWS V14.01,2013-01-02 10:03:00,
2013-01-02 05:09:00,44.9,43.8,29.96,North,6,1.0,8.0,96,0.03,,---,0.26,VWS V14.01,2013-01-02 10:09:00,
2013-01-02 05:14:00,44.9,43.8,29.97,NE,41,2.0,8.0,96,0.03,,---,0.26,VWS V14.01,2013-01-02 10:14:00,
2013-01-02 05:19:00,44.8,43.7,29.97,NNE,12,3.0,8.0,96,0.03,,---,0.26,VWS V14.01,2013-01-02 10:19:00,
2013-01-02 05:24:00,44.8,43.7,29.96,NNE,25,1.0,8.0,96,0.03,,---,0.26,VWS V14.01,2013-01-02 10:24:00,
2013-01-02 05:29:00,44.8,43.7,29.96,NE,43,1.0,8.0,96,0.03,,---,0.26,VWS V14.01,2013-01-02 10:29:00,
2013-01-02 05:30:00,44.8,43.7,29.96,NNW,342,2.0,8.0,96,0.03,,---,0.26,VWS V14.01,2013-01-02 10:30:00,
2013-01-02 05:34:00,44.8,43.7,29.97,NNE,16,2.0,4.0,96,0.02,,---,0.27,VWS V14.01,2013-01-02 10:34:00,
2013-01-02 05:39:00,44.7,43.6,29.96,NNE,25,4.0,9.0,96,0.02,,---,0.27,VWS V14.01,2013-01-02 10:39:00,
2013-01-02 05:44:00,44.6,43.5,29.97,NNW,340,1.0,9.0,96,0.02,,---,0.27,VWS V14.01,2013-01-02 10:44:00,
2013-01-02 05:50:00,44.5,43.4,29.97,North,359,2.0,9.0,96,0.02,,---,0.27,VWS V14.01,2013-01-02 10:50:00,
2013-01-02 05:55:00,44.5,43.4,29.97,NNE,18,2.0,9.0,96,0.02,,---,0.27,VWS V14.01,2013-01-02 10:55:00,
2013-01-02 06:00:00,44.4,43.3,29.98,North,6,0.0,1.0,96,0.03,,---,0.28,VWS V14.01,2013-01-02 11:00:00,
2013-01-02 06:05:00,44.4,43.3,29.98,NNW,331,0.0,1.0,96,0.03,,---,0.28,VWS V14.01,2013-01-02 11:05:00,
2013-01-02 06:10:00,44.4,43.3,29.99,NE,54,1.0,2.0,96,0.03,,---,0.28,VWS V14.01,2013-01-02 11:10:00,
2013-01-02 06:15:00,44.4,43.3,29.99,North,4,2.0,3.0,96,0.03,,---,0.28,VWS V14.01,2013-01-02 11:15:00,
2013-01-02 06:20:00,44.3,43.2,29.99,NNE,22,0.0,3.0,96,0.04,,---,0.29,VWS V14.01,2013-01-02 11:20:00,
2013-01-02 06:25:00,44.4,43.3,29.99,NNE,21,0.0,3.0,96,0.04,,---,0.29,VWS V14.01,2013-01-02 11:25:00,
2013-01-02 06:30:00,44.3,43.2,29.99,NNW,346,1.0,3.0,96,0.03,,---,0.29,VWS V14.01,2013-01-02 11:30:00,
2013-01-02 06:35:00,44.3,43.2,29.99,NE,34,0.0,3.0,96,0.03,,---,0.29,VWS V14.01,2013-01-02 11:35:00,
2013-01-02 06:40:00,44.3,43.2,29.99,North,356,0.0,3.0,96,0.04,,---,0.30,VWS V14.01,2013-01-02 11:40:00,
2013-01-02 06:46:00,44.3,43.2,29.99,NNW,327,0.0,3.0,96,0.04,,---,0.30,VWS V14.01,2013-01-02 11:46:00,
2013-01-02 06:51:00,44.3,43.2,30.00,North,11,2.0,3.0,96,0.04,,---,0.30,VWS V14.01,2013-01-02 11:51:00,
2013-01-02 06:56:00,44.2,43.1,30.01,NNE,15,0.0,3.0,96,0.04,,---,0.30,VWS V14.01,2013-01-02 11:56:00,
2013-01-02 07:00:00,44.2,43.1,30.01,North,9,2.0,3.0,96,0.04,,---,0.30,VWS V14.01,2013-01-02 12:00:00,
2013-01-02 07:01:00,44.2,43.1,30.01,NNE,17,1.0,2.0,96,0.02,,---,0.30,VWS V14.01,2013-01-02 12:01:00,
2013-01-02 07:06:00,44.2,43.1,30.01,NE,46,0.0,2.0,96,0.02,,---,0.30,VWS V14.01,2013-01-02 12:06:00,
2013-01-02 07:11:00,44.2,43.1,30.01,NE,47,1.0,2.0,96,0.02,,---,0.30,VWS V14.01,2013-01-02 12:11:00,
2013-01-02 07:16:00,44.2,43.4,30.01,NE,41,0.0,2.0,97,0.02,,---,0.30,VWS V14.01,2013-01-02 12:16:00,
2013-01-02 07:21:00,44.2,43.1,30.01,North,7,0.0,5.0,96,0.02,,---,0.30,VWS V14.01,2013-01-02 12:21:00,
2013-01-02 07:27:00,44.1,43.0,30.00,NNE,25,3.0,5.0,96,0.02,,---,0.30,VWS V14.01,2013-01-02 12:27:00,
2013-01-02 07:30:00,44.1,43.0,30.01,NE,42,0.0,5.0,96,0.02,,---,0.30,VWS V14.01,2013-01-02 12:30:00,
2013-01-02 07:32:00,44.1,43.0,30.01,NE,42,0.0,1.0,96,0.01,,---,0.30,VWS V14.01,2013-01-02 12:32:00,
2013-01-02 07:37:00,44.1,43.0,30.01,North,1,0.0,2.0,96,0.01,,---,0.30,VWS V14.01,2013-01-02 12:37:00,
2013-01-02 07:42:00,44.1,43.0,30.01,North,1,0.0,2.0,96,0.01,,---,0.30,VWS V14.01,2013-01-02 12:42:00,
2013-01-02 07:47:00,44.1,43.0,30.01,ESE,121,0.0,2.0,96,0.01,,---,0.30,VWS V14.01,2013-01-02 12:47:00,
2013-01-02 07:52:00,44.1,43.3,30.01,ESE,121,0.0,2.0,97,0.01,,---,0.30,VWS V14.01,2013-01-02 12:52:00,
2013-01-02 07:57:00,44.1,43.3,30.01,ESE,121,0.0,2.0,97,0.01,,---,0.30,VWS V14.01,2013-01-02 12:57:00,
2013-01-02 08:00:00,44.1,43.3,30.01,ESE,121,0.0,2.0,97,0.01,,---,0.30,VWS V14.01,2013-01-02 13:00:00,
2013-01-02 08:02:00,44.1,43.3,30.01,ESE,121,0.0,0.0,97,0.00,,---,0.30,VWS V14.01,2013-01-02 13:02:00,
2013-01-02 08:07:00,44.1,43.3,30.00,ESE,121,0.0,1.0,97,0.00,,---,0.30,VWS V14.01,2013-01-02 13:07:00,
2013-01-02 08:12:00,44.1,43.3,30.00,ESE,121,0.0,1.0,97,0.00,,---,0.30,VWS V14.01,2013-01-02 13:12:00,
2013-01-02 08:17:00,44.1,43.3,30.00,ESE,121,0.0,1.0,97,0.00,,---,0.30,VWS V14.01,2013-01-02 13:17:00,
2013-01-02 08:23:00,44.2,43.4,30.01,ESE,121,0.0,1.0,97,0.00,,---,0.30,VWS V14.01,2013-01-02 13:23:00,
2013-01-02 08:28:00,44.4,43.6,30.02,ESE,121,0.0,1.0,97,0.00,,---,0.30,VWS V14.01,2013-01-02 13:28:00,
2013-01-02 08:30:00,44.4,43.6,30.02,ESE,121,0.0,1.0,97,0.00,,---,0.30,VWS V14.01,2013-01-02 13:30:00,
2013-01-02 08:33:00,44.4,43.6,30.01,ESE,121,0.0,1.0,97,0.00,,---,0.30,VWS V14.01,2013-01-02 13:33:00,
2013-01-02 08:38:00,44.5,43.7,30.02,ESE,121,0.0,1.0,97,0.00,,---,0.30,VWS V14.01,2013-01-02 13:38:00,
2013-01-02 08:43:00,44.7,43.9,30.03,North,359,2.0,2.0,97,0.00,,---,0.30,VWS V14.01,2013-01-02 13:43:00,
2013-01-02 08:48:00,44.7,43.9,30.03,North,356,0.0,2.0,97,0.00,,---,0.30,VWS V14.01,2013-01-02 13:48:00,
2013-01-02 08:53:00,44.7,43.9,30.03,NNE,31,0.0,2.0,97,0.00,,---,0.30,VWS V14.01,2013-01-02 13:53:00,
2013-01-02 08:58:00,44.7,43.9,30.04,North,356,1.0,4.0,97,0.00,,---,0.30,VWS V14.01,2013-01-02 13:58:00,
2013-01-02 09:00:00,44.7,43.9,30.04,North,356,0.0,4.0,97,0.00,,---,0.30,VWS V14.01,2013-01-02 14:00:00,
2013-01-02 09:04:00,44.8,44.0,30.04,NNE,26,0.0,2.0,97,0.00,,---,0.30,VWS V14.01,2013-01-02 14:04:00,
2013-01-02 09:09:00,44.7,43.9,30.05,NNW,340,2.0,2.0,97,0.00,,---,0.30,VWS V14.01,2013-01-02 14:09:00,
2013-01-02 09:14:00,44.6,43.5,30.06,WSW,242,1.0,5.0,96,0.00,,---,0.30,VWS V14.01,2013-01-02 14:14:00,
2013-01-02 09:19:00,44.6,43.5,30.06,WNW,288,0.0,5.0,96,0.00,,---,0.30,VWS V14.01,2013-01-02 14:19:00,
2013-01-02 09:24:00,44.6,43.5,30.06,NE,44,1.0,5.0,96,0.00,,---,0.30,VWS V14.01,2013-01-02 14:24:00,
2013-01-02 09:29:00,44.5,43.4,30.06,North,11,1.0,5.0,96,0.00,,---,0.30,VWS V14.01,2013-01-02 14:29:00,
2013-01-02 09:30:00,44.5,43.4,30.06,NNE,27,0.0,5.0,96,0.00,,---,0.30,VWS V14.01,2013-01-02 14:30:00,
2013-01-02 09:34:00,44.5,43.4,30.06,NW,319,1.0,3.0,96,0.00,,---,0.30,VWS V14.01,2013-01-02 14:34:00,
2013-01-02 09:39:00,44.4,43.3,30.07,North,350,1.0,4.0,96,0.00,,---,0.30,VWS V14.01,2013-01-02 14:39:00,
2013-01-02 09:44:00,44.4,43.3,30.07,North,1,1.0,5.0,96,0.00,,---,0.30,VWS V14.01,2013-01-02 14:44:00,
2013-01-02 09:50:00,44.5,43.4,30.07,ENE,77,2.0,5.0,96,0.00,,---,0.30,VWS V14.01,2013-01-02 14:50:00,
2013-01-02 09:55:00,44.4,43.3,30.07,NNE,20,0.0,5.0,96,0.00,,---,0.30,VWS V14.01,2013-01-02 14:55:00,
2013-01-02 10:00:00,44.4,43.3,30.07,ENE,63,0.0,1.0,96,0.00,,---,0.30,VWS V14.01,2013-01-02 15:00:00,
2013-01-02 10:05:00,44.4,43.3,30.07,North,356,3.0,6.0,96,0.00,,---,0.30,VWS V14.01,2013-01-02 15:05:00,
2013-01-02 10:10:00,44.4,43.3,30.08,NE,36,2.0,6.0,96,0.00,,---,0.30,VWS V14.01,2013-01-02 15:10:00,
2013-01-02 10:15:00,44.3,43.2,30.08,North,9,0.0,9.0,96,0.00,,---,0.30,VWS V14.01,2013-01-02 15:15:00,
2013-01-02 10:20:00,44.2,43.1,30.08,NE,42,3.0,9.0,96,0.00,,---,0.30,VWS V14.01,2013-01-02 15:20:00,
2013-01-02 10:25:00,44.1,43.0,30.08,East,81,2.0,9.0,96,0.00,,---,0.30,VWS V14.01,2013-01-02 15:25:00,
2013-01-02 10:30:00,44.2,43.1,30.08,NNE,25,2.0,2.0,96,0.00,,---,0.30,VWS V14.01,2013-01-02 15:30:00,
2013-01-02 10:35:00,44.1,43.0,30.09,NW,325,1.0,4.0,96,0.00,,---,0.30,VWS V14.01,2013-01-02 15:35:00,
2013-01-02 10:40:00,44.1,43.0,30.09,NNW,335,1.0,7.0,96,0.00,,---,0.30,VWS V14.01,2013-01-02 15:40:00,
2013-01-02 10:45:00,44.0,42.9,30.10,NNE,13,1.0,7.0,96,0.00,,---,0.30,VWS V14.01,2013-01-02 15:45:00,
2013-01-02 10:51:00,44.1,43.0,30.09,North,11,1.0,7.0,96,0.00,,---,0.30,VWS V14.01,2013-01-02 15:51:00,
2013-01-02 10:56:00,44.3,43.0,30.09,NE,40,4.0,9.0,95,0.00,,---,0.30,VWS V14.01,2013-01-02 15:56:00,
2013-01-02 11:00:00,44.3,42.7,30.09,NE,44,2.0,9.0,94,0.00,,---,0.30,VWS V14.01,2013-01-02 16:00:00,
2013-01-02 11:01:00,44.2,42.6,30.09,East,83,0.0,2.0,94,0.00,,---,0.30,VWS V14.01,2013-01-02 16:01:00,
2013-01-02 11:06:00,44.1,42.5,30.09,SSW,199,0.0,7.0,94,0.00,,---,0.30,VWS V14.01,2013-01-02 16:06:00,
2013-01-02 11:11:00,43.9,42.0,30.09,ENE,65,1.0,8.0,93,0.00,,---,0.30,VWS V14.01,2013-01-02 16:11:00,
2013-01-02 11:16:00,43.6,41.7,30.09,NNE,15,3.0,8.0,93,0.00,,---,0.30,VWS V14.01,2013-01-02 16:16:00,
2013-01-02 11:21:00,43.4,41.5,30.09,NE,46,2.0,8.0,93,0.00,,---,0.30,VWS V14.01,2013-01-02 16:21:00,
2013-01-02 11:26:00,43.2,41.3,30.08,NE,36,3.0,8.0,93,0.00,,---,0.30,VWS V14.01,2013-01-02 16:26:00,
2013-01-02 11:30:00,43.0,41.1,30.08,NE,38,2.0,8.0,93,0.00,,---,0.30,VWS V14.01,2013-01-02 16:30:00,
2013-01-02 11:31:00,42.9,41.0,30.08,NNE,28,3.0,8.0,93,0.00,,---,0.30,VWS V14.01,2013-01-02 16:31:00,
2013-01-02 11:37:00,42.9,41.0,30.08,ENE,58,3.0,8.0,93,0.00,,---,0.30,VWS V14.01,2013-01-02 16:37:00,
2013-01-02 11:42:00,42.6,40.7,30.09,NE,40,2.0,8.0,93,0.00,,---,0.30,VWS V14.01,2013-01-02 16:42:00,
2013-01-02 11:47:00,42.5,40.6,30.10,North,352,1.0,8.0,93,0.00,,---,0.30,VWS V14.01,2013-01-02 16:47:00,
2013-01-02 11:52:00,42.5,40.6,30.08,NE,43,7.0,8.0,93,0.00,,---,0.30,VWS V14.01,2013-01-02 16:52:00,
2013-01-02 11:57:00,42.2,40.6,30.08,NE,39,1.0,10.0,94,0.00,,---,0.30,VWS V14.01,2013-01-02 16:57:00,
2013-01-02 12:00:00,42.2,40.6,30.08,NNW,347,0.0,10.0,94,0.00,,---,0.30,VWS V14.01,2013-01-02 17:00:00,
2013-01-02 12:02:00,42.2,40.6,30.08,NNE,12,2.0,3.0,94,0.00,,---,0.30,VWS V14.01,2013-01-02 17:02:00,
2013-01-02 12:07:00,41.9,40.3,30.07,NNE,32,1.0,9.0,94,0.00,,---,0.30,VWS V14.01,2013-01-02 17:07:00,
2013-01-02 12:12:00,41.7,40.1,30.08,ENE,66,0.0,9.0,94,0.00,,---,0.30,VWS V14.01,2013-01-02 17:12:00,
2013-01-02 12:18:00,41.9,40.3,30.08,NE,52,2.0,9.0,94,0.00,,---,0.30,VWS V14.01,2013-01-02 17:18:00,
2013-01-02 12:23:00,41.8,40.2,30.08,West,263,2.0,9.0,94,0.00,,---,0.30,VWS V14.01,2013-01-02 17:23:00,
2013-01-02 12:28:00,41.8,40.2,30.08,NE,49,1.0,9.0,94,0.00,,---,0.30,VWS V14.01,2013-01-02 17:28:00,
2013-01-02 12:30:00,41.8,40.2,30.08,NE,37,1.0,9.0,94,0.00,,---,0.30,VWS V14.01,2013-01-02 17:30:00,
2013-01-02 12:33:00,41.9,40.3,30.08,NE,50,0.0,3.0,94,0.00,,---,0.30,VWS V14.01,2013-01-02 17:33:00,
2013-01-02 12:38:00,41.9,40.0,30.08,North,11,2.0,5.0,93,0.00,,---,0.30,VWS V14.01,2013-01-02 17:38:00,
2013-01-02 12:43:00,42.2,40.6,30.08,NNE,27,1.0,5.0,94,0.00,,---,0.30,VWS V14.01,2013-01-02 17:43:00,
2013-01-02 12:48:00,42.2,40.3,30.07,NE,39,2.0,5.0,93,0.00,,---,0.30,VWS V14.01,2013-01-02 17:48:00,
2013-01-02 12:53:00,42.2,40.3,30.06,NE,40,2.0,5.0,93,0.00,,---,0.30,VWS V14.01,2013-01-02 17:53:00,
2013-01-02 12:58:00,42.2,40.0,30.07,NE,44,2.0,5.0,92,0.00,,---,0.30,VWS V14.01,2013-01-02 17:58:00,
2013-01-02 13:00:00,42.1,40.0,30.06,NE,51,6.0,6.0,92,0.00,,---,0.30,VWS V14.01,2013-01-02 18:00:00,
2013-01-02 13:03:00,42.2,40.3,30.06,NNE,22,2.0,7.0,93,0.00,,---,0.30,VWS V14.01,2013-01-02 18:03:00,
2013-01-02 13:08:00,42.3,40.4,30.05,NNE,19,0.0,7.0,93,0.00,,---,0.30,VWS V14.01,2013-01-02 18:08:00,
2013-01-02 13:13:00,42.3,40.2,30.06,North,354,1.0,7.0,92,0.00,,---,0.30,VWS V14.01,2013-01-02 18:13:00,
2013-01-02 13:19:00,42.4,40.2,30.06,NE,46,2.0,7.0,92,0.00,,---,0.30,VWS V14.01,2013-01-02 18:19:00,
2013-01-02 13:24:00,42.4,40.0,30.05,North,352,1.0,7.0,91,0.00,,---,0.30,VWS V14.01,2013-01-02 18:24:00,
2013-01-02 13:29:00,42.5,40.1,30.06,East,79,4.0,7.0,91,0.00,,---,0.30,VWS V14.01,2013-01-02 18:29:00,
2013-01-02 13:30:00,42.6,40.2,30.06,West,270,1.0,7.0,91,0.00,,---,0.30,VWS V14.01,2013-01-02 18:30:00,
2013-01-02 13:34:00,42.6,39.9,30.06,South,177,1.0,4.0,90,0.00,,---,0.30,VWS V14.01,2013-01-02 18:34:00,
2013-01-02 13:39:00,42.8,40.1,30.06,WNW,284,1.0,4.0,90,0.00,,---,0.30,VWS V14.01,2013-01-02 18:39:00,
2013-01-02 13:44:00,43.2,40.2,30.07,WNW,294,1.0,4.0,89,0.00,,---,0.30,VWS V14.01,2013-01-02 18:44:00,
2013-01-02 13:49:00,43.5,39.9,30.06,NNE,16,0.0,4.0,87,0.00,,---,0.30,VWS V14.01,2013-01-02 18:49:00,
2013-01-02 13:54:00,43.5,39.9,30.06,East,92,0.0,5.0,87,0.00,,---,0.30,VWS V14.01,2013-01-02 18:54:00,
2013-01-02 13:59:00,43.3,40.0,30.08,NNE,22,0.0,5.0,88,0.00,,---,0.30,VWS V14.01,2013-01-02 18:59:00,
2013-01-02 14:00:00,43.3,40.0,30.08,NNE,21,2.0,5.0,88,0.00,,---,0.30,VWS V14.01,2013-01-02 19:00:00,
2013-01-02 14:04:00,43.2,39.6,30.07,ENE,71,2.0,5.0,87,0.00,,---,0.30,VWS V14.01,2013-01-02 19:04:00,
2013-01-02 14:10:00,43.1,39.8,30.08,NE,52,1.0,5.0,88,0.00,,---,0.30,VWS V14.01,2013-01-02 19:10:00,
2013-01-02 14:15:00,43.1,39.8,30.07,NE,36,1.0,5.0,88,0.00,,---,0.30,VWS V14.01,2013-01-02 19:15:00,
2013-01-02 14:20:00,43.0,39.7,30.07,NE,48,0.0,6.0,88,0.00,,---,0.30,VWS V14.01,2013-01-02 19:20:00,
2013-01-02 14:25:00,43.1,40.1,30.07,NE,41,1.0,6.0,89,0.00,,---,0.30,VWS V14.01,2013-01-02 19:25:00,
2013-01-02 14:30:00,43.1,39.8,30.08,North,356,2.0,6.0,88,0.00,,---,0.30,VWS V14.01,2013-01-02 19:30:00,
2013-01-02 14:35:00,43.1,39.5,30.07,NE,42,1.0,4.0,87,0.00,,---,0.30,VWS V14.01,2013-01-02 19:35:00,
2013-01-02 14:40:00,43.1,39.2,30.07,NNW,328,0.0,5.0,86,0.00,,---,0.30,VWS V14.01,2013-01-02 19:40:00,
2013-01-02 14:45:00,43.4,39.8,30.07,NE,39,1.0,5.0,87,0.00,,---,0.30,VWS V14.01,2013-01-02 19:45:00,
2013-01-02 14:50:00,43.6,39.7,30.08,NE,40,3.0,5.0,86,0.00,,---,0.30,VWS V14.01,2013-01-02 19:50:00,
2013-01-02 14:55:00,43.5,39.0,30.08,NNE,20,2.0,5.0,84,0.00,,---,0.30,VWS V14.01,2013-01-02 19:55:00,
2013-01-02 15:00:00,43.6,39.4,30.08,NE,47,0.0,0.0,85,0.00,,---,0.30,VWS V14.01,2013-01-02 20:00:00,
2013-01-02 15:05:00,44.0,39.5,30.08,NE,46,0.0,0.0,84,0.00,,---,0.30,VWS V14.01,2013-01-02 20:05:00,
2013-01-02 15:10:00,44.0,39.2,30.08,NE,34,2.0,4.0,83,0.00,,---,0.30,VWS V14.01,2013-01-02 20:10:00,
2013-01-02 15:15:00,43.7,38.9,30.09,NNW,347,1.0,5.0,83,0.00,,---,0.30,VWS V14.01,2013-01-02 20:15:00,
2013-01-02 15:20:00,43.5,38.7,30.09,ENE,63,0.0,5.0,83,0.00,,---,0.30,VWS V14.01,2013-01-02 20:20:00,
2013-01-02 15:25:00,43.5,39.0,30.09,ENE,65,0.0,5.0,84,0.00,,---,0.30,VWS V14.01,2013-01-02 20:25:00,
2013-01-02 15:30:00,43.6,39.1,30.09,NE,40,1.0,1.0,84,0.00,,---,0.30,VWS V14.01,2013-01-02 20:30:00,
2013-01-02 15:35:00,43.5,38.7,30.09,North,354,2.0,3.0,83,0.00,,---,0.30,VWS V14.01,2013-01-02 20:35:00,
2013-01-02 15:41:00,43.5,38.7,30.10,NE,37,0.0,3.0,83,0.00,,---,0.30,VWS V14.01,2013-01-02 20:41:00,
2013-01-02 15:46:00,43.6,38.8,30.10,NE,48,0.0,3.0,83,0.00,,---,0.30,VWS V14.01,2013-01-02 20:46:00,
2013-01-02 15:51:00,43.6,38.8,30.10,NE,46,3.0,3.0,83,0.00,,---,0.30,VWS V14.01,2013-01-02 20:51:00,
2013-01-02 15:56:00,43.7,38.9,30.10,NE,41,3.0,3.0,83,0.00,,---,0.30,VWS V14.01,2013-01-02 20:56:00,
2013-01-02 16:00:00,43.6,38.8,30.10,NE,44,0.0,5.0,83,0.00,,---,0.30,VWS V14.01,2013-01-02 21:00:00,
2013-01-02 16:01:00,43.6,38.8,30.11,NE,44,0.0,0.0,83,0.00,,---,0.30,VWS V14.01,2013-01-02 21:01:00,
2013-01-02 16:06:00,43.7,38.6,30.10,North,8,1.0,2.0,82,0.00,,---,0.30,VWS V14.01,2013-01-02 21:06:00,
2013-01-02 16:11:00,43.6,38.5,30.11,NNW,345,0.0,2.0,82,0.00,,---,0.30,VWS V14.01,2013-01-02 21:11:00,
2013-01-02 16:16:00,43.6,38.2,30.10,NE,37,2.0,3.0,81,0.00,,---,0.30,VWS V14.01,2013-01-02 21:16:00,
2013-01-02 16:21:00,43.5,38.4,30.10,NNE,31,0.0,4.0,82,0.00,,---,0.30,VWS V14.01,2013-01-02 21:21:00,
2013-01-02 16:26:00,43.5,38.4,30.11,North,356,1.0,4.0,82,0.00,,---,0.30,VWS V14.01,2013-01-02 21:26:00,
2013-01-02 16:30:00,43.4,38.6,30.11,North,356,0.0,4.0,83,0.00,,---,0.30,VWS V14.01,2013-01-02 21:30:00,
2013-01-02 16:31:00,43.5,38.7,30.12,North,356,0.0,1.0,83,0.00,,---,0.30,VWS V14.01,2013-01-02 21:31:00,
2013-01-02 16:37:00,43.5,38.7,30.11,North,356,0.0,1.0,83,0.00,,---,0.30,VWS V14.01,2013-01-02 21:37:00,
2013-01-02 16:42:00,43.2,38.4,30.11,NE,37,1.0,4.0,83,0.00,,---,0.30,VWS V14.01,2013-01-02 21:42:00,
2013-01-02 16:47:00,43.2,38.7,30.12,North,8,0.0,4.0,84,0.00,,---,0.30,VWS V14.01,2013-01-02 21:47:00,
2013-01-02 16:52:00,43.1,38.6,30.10,North,5,2.0,4.0,84,0.00,,---,0.30,VWS V14.01,2013-01-02 21:52:00,
2013-01-02 16:57:00,42.8,38.6,30.11,NE,49,0.0,4.0,85,0.00,,---,0.30,VWS V14.01,2013-01-02 21:57:00,
2013-01-02 17:00:00,42.8,38.6,30.11,NE,48,0.0,4.0,85,0.00,,---,0.30,VWS V14.01,2013-01-02 22:00:00,
2013-01-02 17:02:00,42.7,38.5,30.11,NE,48,0.0,0.0,85,0.00,,---,0.30,VWS V14.01,2013-01-02 22:02:00,
2013-01-02 17:07:00,42.7,38.8,30.11,NE,44,0.0,4.0,86,0.00,,---,0.30,VWS V14.01,2013-01-02 22:07:00,
2013-01-02 17:12:00,42.6,38.7,30.11,NE,43,0.0,4.0,86,0.00,,---,0.30,VWS V14.01,2013-01-02 22:12:00,
2013-01-02 17:17:00,42.5,38.6,30.11,NNE,32,3.0,4.0,86,0.00,,---,0.30,VWS V14.01,2013-01-02 22:17:00,
2013-01-02 17:22:00,42.5,38.6,30.12,NNW,347,0.0,4.0,86,0.00,,---,0.30,VWS V14.01,2013-01-02 22:22:00,
2013-01-02 17:28:00,42.4,38.5,30.12,NNW,347,0.0,4.0,86,0.00,,---,0.30,VWS V14.01,2013-01-02 22:28:00,
2013-01-02 17:30:00,42.4,38.5,30.12,NNW,347,0.0,4.0,86,0.00,,---,0.30,VWS V14.01,2013-01-02 22:30:00,
2013-01-02 17:33:00,42.3,38.4,30.12,East,91,0.0,2.0,86,0.00,,---,0.30,VWS V14.01,2013-01-02 22:33:00,
2013-01-02 17:38:00,42.2,38.3,30.12,East,91,0.0,2.0,86,0.00,,---,0.30,VWS V14.01,2013-01-02 22:38:00,
2013-01-02 17:43:00,42.2,38.3,30.12,East,91,0.0,2.0,86,0.00,,---,0.30,VWS V14.01,2013-01-02 22:43:00,
2013-01-02 17:48:00,42.0,37.8,30.12,East,91,0.0,2.0,85,0.00,,---,0.30,VWS V14.01,2013-01-02 22:48:00,
2013-01-02 17:53:00,42.0,38.1,30.13,East,90,0.0,2.0,86,0.00,,---,0.30,VWS V14.01,2013-01-02 22:53:00,
2013-01-02 17:58:00,41.8,38.2,30.12,East,91,0.0,2.0,87,0.00,,---,0.30,VWS V14.01,2013-01-02 22:58:00,
2013-01-02 18:00:00,41.8,38.2,30.12,East,91,0.0,2.0,87,0.00,,---,0.30,VWS V14.01,2013-01-02 23:00:00,
2013-01-02 18:03:00,41.7,38.1,30.12,East,91,0.0,1.0,87,0.00,,---,0.30,VWS V14.01,2013-01-02 23:03:00,
2013-01-02 18:08:00,41.7,38.1,30.12,East,91,0.0,1.0,87,0.00,,---,0.30,VWS V14.01,2013-01-02 23:08:00,
2013-01-02 18:13:00,41.7,38.1,30.12,East,90,0.0,1.0,87,0.00,,---,0.30,VWS V14.01,2013-01-02 23:13:00,
2013-01-02 18:18:00,41.8,38.2,30.13,East,90,0.0,2.0,87,0.00,,---,0.30,VWS V14.01,2013-01-02 23:18:00,
2013-01-02 18:23:00,41.8,38.2,30.13,East,91,0.0,2.0,87,0.00,,---,0.30,VWS V14.01,2013-01-02 23:23:00,
2013-01-02 18:29:00,41.7,38.4,30.13,East,91,0.0,2.0,88,0.00,,---,0.30,VWS V14.01,2013-01-02 23:29:00,
2013-01-02 18:30:00,41.7,38.4,30.13,East,91,1.0,2.0,88,0.00,,---,0.30,VWS V14.01,2013-01-02 23:30:00,
2013-01-02 18:34:00,41.6,38.3,30.13,East,91,0.0,1.0,88,0.00,,---,0.30,VWS V14.01,2013-01-02 23:34:00,
2013-01-02 18:39:00,41.6,38.3,30.14,East,91,0.0,1.0,88,0.00,,---,0.30,VWS V14.01,2013-01-02 23:39:00,
2013-01-02 18:44:00,41.5,38.2,30.15,East,92,0.0,1.0,88,0.00,,---,0.30,VWS V14.01,2013-01-02 23:44:00,
2013-01-02 18:49:00,41.3,38.3,30.14,East,92,0.0,1.0,89,0.00,,---,0.30,VWS V14.01,2013-01-02 23:49:00,
2013-01-02 18:54:00,41.2,38.2,30.15,East,92,0.0,1.0,89,0.00,,---,0.30,VWS V14.01,2013-01-02 23:54:00,
2013-01-02 18:59:00,41.2,38.2,30.15,East,91,0.0,1.0,89,0.00,,---,0.30,VWS V14.01,2013-01-02 23:59:00,
2013-01-02 19:00:00,41.2,38.2,30.14,East,91,0.0,1.0,89,0.00,,---,0.30,VWS V14.01,2013-01-03 00:00:00,
2013-01-02 19:04:00,41.1,38.1,30.14,East,92,0.0,1.0,89,0.00,,---,0.30,VWS V14.01,2013-01-03 00:04:00,
2013-01-02 19:09:00,41.1,38.4,30.14,East,92,0.0,1.0,90,0.00,,---,0.30,VWS V14.01,2013-01-03 00:09:00,
2013-01-02 19:14:00,41.0,38.3,30.13,East,92,0.0,1.0,90,0.00,,---,0.30,VWS V14.01,2013-01-03 00:14:00,
2013-01-02 19:20:00,40.9,38.2,30.14,East,92,0.0,1.0,90,0.00,,---,0.30,VWS V14.01,2013-01-03 00:20:00,
2013-01-02 19:25:00,40.8,38.1,30.15,East,92,0.0,1.0,90,0.00,,---,0.30,VWS V14.01,2013-01-03 00:25:00,
2013-01-02 19:30:00,40.7,38.3,30.16,East,91,0.0,0.0,91,0.00,,---,0.30,VWS V14.01,2013-01-03 00:30:00,
2013-01-02 19:35:00,40.7,38.3,30.15,East,91,0.0,0.0,91,0.00,,---,0.30,VWS V14.01,2013-01-03 00:35:00,
2013-01-02 19:40:00,40.6,38.2,30.15,East,92,0.0,0.0,91,0.00,,---,0.30,VWS V14.01,2013-01-03 00:40:00,
2013-01-02 19:45:00,40.6,38.2,30.15,East,91,0.0,1.0,91,0.00,,---,0.30,VWS V14.01,2013-01-03 00:45:00,
2013-01-02 19:50:00,40.6,38.5,30.17,East,92,0.0,1.0,92,0.00,,---,0.30,VWS V14.01,2013-01-03 00:50:00,
2013-01-02 19:55:00,40.6,38.5,30.16,East,92,0.0,1.0,92,0.00,,---,0.30,VWS V14.01,2013-01-03 00:55:00,
2013-01-02 20:00:00,40.4,38.3,30.16,East,92,0.0,0.0,92,0.00,,---,0.30,VWS V14.01,2013-01-03 01:00:00,
2013-01-02 20:05:00,40.3,38.2,30.16,East,91,1.0,1.0,92,0.00,,---,0.30,VWS V14.01,2013-01-03 01:05:00,
2013-01-02 20:10:00,40.1,38.0,30.16,East,91,0.0,1.0,92,0.00,,---,0.30,VWS V14.01,2013-01-03 01:10:00,
2013-01-02 20:15:00,40.1,38.0,30.16,East,91,0.0,1.0,92,0.00,,---,0.30,VWS V14.01,2013-01-03 01:15:00,
2013-01-02 20:20:00,40.1,38.2,30.15,East,92,1.0,1.0,93,0.00,,---,0.30,VWS V14.01,2013-01-03 01:20:00,
2013-01-02 20:26:00,40.3,38.2,30.16,East,91,0.0,1.0,92,0.00,,---,0.30,VWS V14.01,2013-01-03 01:26:00,
2013-01-02 20:30:00,40.4,38.3,30.15,East,92,1.0,1.0,92,0.00,,---,0.30,VWS V14.01,2013-01-03 01:30:00,
2013-01-02 20:31:00,40.4,38.3,30.16,East,91,1.0,1.0,92,0.00,,---,0.30,VWS V14.01,2013-01-03 01:31:00,
2013-01-02 20:36:00,40.6,38.5,30.15,ENE,77,1.0,2.0,92,0.00,,---,0.30,VWS V14.01,2013-01-03 01:36:00,
2013-01-02 20:41:00,40.6,38.5,30.16,East,93,1.0,2.0,92,0.00,,---,0.30,VWS V14.01,2013-01-03 01:41:00,
2013-01-02 20:46:00,40.6,38.5,30.15,East,92,1.0,2.0,92,0.00,,---,0.30,VWS V14.01,2013-01-03 01:46:00,
2013-01-02 20:51:00,40.6,38.5,30.16,ESE,117,1.0,2.0,92,0.00,,---,0.30,VWS V14.01,2013-01-03 01:51:00,
2013-01-02 20:56:00,40.5,38.4,30.15,SE,129,1.0,2.0,92,0.00,,---,0.30,VWS V14.01,2013-01-03 01:56:00,
2013-01-02 21:00:00,40.5,38.4,30.15,ENE,77,1.0,2.0,92,0.00,,---,0.30,VWS V14.01,2013-01-03 02:00:00,
2013-01-02 21:01:00,40.4,38.3,30.15,ENE,76,0.0,1.0,92,0.00,,---,0.30,VWS V14.01,2013-01-03 02:01:00,
2013-01-02 21:07:00,40.4,38.3,30.17,ENE,76,0.0,1.0,92,0.00,,---,0.30,VWS V14.01,2013-01-03 02:07:00,
2013-01-02 21:12:00,40.3,38.2,30.16,East,86,0.0,1.0,92,0.00,,---,0.30,VWS V14.01,2013-01-03 02:12:00,
2013-01-02 21:17:00,40.3,38.4,30.16,East,86,1.0,1.0,93,0.00,,---,0.30,VWS V14.01,2013-01-03 02:17:00,
2013-01-02 21:22:00,40.3,38.4,30.16,SE,130,0.0,1.0,93,0.00,,---,0.30,VWS V14.01,2013-01-03 02:22:00,
2013-01-02 21:27:00,40.2,38.3,30.17,SE,132,0.0,1.0,93,0.00,,---,0.30,VWS V14.01,2013-01-03 02:27:00,
2013-01-02 21:30:00,40.2,38.3,30.17,SE,133,0.0,1.0,93,0.00,,---,0.30,VWS V14.01,2013-01-03 02:30:00,
2013-01-02 21:32:00,40.2,38.3,30.18,SE,132,0.0,0.0,93,0.00,,---,0.30,VWS V14.01,2013-01-03 02:32:00,
2013-01-02 21:37:00,40.2,38.3,30.17,SE,133,0.0,1.0,93,0.00,,---,0.30,VWS V14.01,2013-01-03 02:37:00,
2013-01-02 21:42:00,40.2,38.3,30.17,SE,133,0.0,1.0,93,0.00,,---,0.30,VWS V14.01,2013-01-03 02:42:00,
2013-01-02 21:47:00,40.2,38.3,30.17,SE,132,0.0,1.0,93,0.00,,---,0.30,VWS V14.01,2013-01-03 02:47:00,
2013-01-02 21:53:00,40.2,38.6,30.17,SE,132,0.0,1.0,94,0.00,,---,0.30,VWS V14.01,2013-01-03 02:53:00,
2013-01-02 21:58:00,40.2,38.6,30.16,SE,132,0.0,1.0,94,0.00,,---,0.30,VWS V14.01,2013-01-03 02:58:00,
2013-01-02 22:00:00,40.2,38.6,30.17,SE,132,0.0,1.0,94,0.00,,---,0.30,VWS V14.01,2013-01-03 03:00:00,
2013-01-02 22:03:00,40.2,38.6,30.17,SE,132,0.0,0.0,94,0.00,,---,0.30,VWS V14.01,2013-01-03 03:03:00,
2013-01-02 22:08:00,40.2,38.6,30.17,SE,132,1.0,1.0,94,0.00,,---,0.30,VWS V14.01,2013-01-03 03:08:00,
2013-01-02 22:13:00,40.2,38.6,30.16,SE,132,1.0,1.0,94,0.00,,---,0.30,VWS V14.01,2013-01-03 03:13:00,
2013-01-02 22:18:00,40.1,38.5,30.16,SE,132,1.0,2.0,94,0.00,,---,0.30,VWS V14.01,2013-01-03 03:18:00,
2013-01-02 22:23:00,40.1,38.5,30.17,SSW,197,2.0,2.0,94,0.00,,---,0.30,VWS V14.01,2013-01-03 03:23:00,
2013-01-02 22:28:00,40.1,38.5,30.17,WSW,238,0.0,2.0,94,0.00,,---,0.30,VWS V14.01,2013-01-03 03:28:00,
2013-01-02 22:30:00,40.1,38.5,30.17,SE,129,0.0,2.0,94,0.00,,---,0.30,VWS V14.01,2013-01-03 03:30:00,
2013-01-02 22:34:00,40.1,38.5,30.17,SE,130,0.0,1.0,94,0.00,,---,0.30,VWS V14.01,2013-01-03 03:34:00,
2013-01-02 22:39:00,40.1,38.5,30.18,SE,130,0.0,1.0,94,0.00,,---,0.30,VWS V14.01,2013-01-03 03:39:00,
2013-01-02 22:44:00,40.1,38.5,30.18,SE,130,0.0,1.0,94,0.00,,---,0.30,VWS V14.01,2013-01-03 03:44:00,
2013-01-02 22:49:00,40.0,38.4,30.18,SE,130,0.0,1.0,94,0.00,,---,0.30,VWS V14.01,2013-01-03 03:49:00,
2013-01-02 22:55:00,40.0,38.4,30.18,SE,129,0.0,1.0,94,0.00,,---,0.30,VWS V14.01,2013-01-03 03:55:00,
2013-01-02 23:00:00,39.9,38.3,30.18,SE,131,0.0,0.0,94,0.00,,---,0.30,VWS V14.01,2013-01-03 04:00:00,
2013-01-02 23:05:00,39.9,38.3,30.19,SE,130,0.0,0.0,94,0.00,,---,0.30,VWS V14.01,2013-01-03 04:05:00,
2013-01-02 23:10:00,39.9,38.3,30.18,SE,130,0.0,0.0,94,0.00,,---,0.30,VWS V14.01,2013-01-03 04:10:00,
2013-01-02 23:15:00,39.9,38.6,30.18,SE,129,0.0,1.0,95,0.00,,---,0.30,VWS V14.01,2013-01-03 04:15:00,
2013-01-02 23:20:00,39.9,38.6,30.19,SE,130,0.0,1.0,95,0.00,,---,0.30,VWS V14.01,2013-01-03 04:20:00,
2013-01-02 23:25:00,39.9,38.6,30.19,SE,130,0.0,1.0,95,0.00,,---,0.30,VWS V14.01,2013-01-03 04:25:00,
2013-01-02 23:30:00,39.9,38.6,30.19,SE,129,0.0,0.0,95,0.00,,---,0.30,VWS V14.01,2013-01-03 04:30:00,
2013-01-02 23:35:00,39.8,38.5,30.18,SE,129,0.0,1.0,95,0.00,,---,0.30,VWS V14.01,2013-01-03 04:35:00,
2013-01-02 23:40:00,39.8,38.5,30.18,SE,129,0.0,1.0,95,0.00,,---,0.30,VWS V14.01,2013-01-03 04:40:00,
2013-01-02 23:45:00,39.8,38.5,30.18,SE,130,0.0,1.0,95,0.00,,---,0.30,VWS V14.01,2013-01-03 04:45:00,
2013-01-02 23:51:00,39.8,38.5,30.18,SE,129,0.0,1.0,95,0.00,,---,0.30,VWS V14.01,2013-01-03 04:51:00,
2013-01-02 23:56:00,39.8,38.5,30.18,East,101,0.0,2.0,95,0.00,,---,0.30,VWS V14.01,2013-01-03 04:56:00,